Location: Caltech
(34.1382°N, 118.1253°W)
Time: 03:22:36
(UTC-07:00)

Cosmos 1975 - Visible Passes

Search period start: 28 August 2016 00:00
Search period end: 07 September 2016 00:00
Orbit: 546 x 564 km, 82.5° (Epoch: 27 August)

Date Brightness Start Highest point End Pass type
(mag) Time Alt. Az. Time Alt. Az. Time Alt. Az.
28 Aug 2.8 20:19:15 10° S 20:23:18 66° E 20:27:22 10° NNE visible
29 Aug 2.8 20:16:30 10° S 20:20:35 77° E 20:24:41 10° N visible
30 Aug 2.8 20:13:47 10° S 20:17:53 90° NE 20:22:00 10° N visible
31 Aug 3.0 20:11:05 10° S 20:15:10 78° W 20:19:17 10° N visible
01 Sep 3.3 20:08:24 10° SSW 20:12:28 66° W 20:16:33 10° N visible
02 Sep 3.6 20:05:45 10° SSW 20:09:46 56° W 20:13:48 10° N visible
03 Sep 4.0 20:03:07 10° SSW 20:07:04 48° W 20:11:03 10° N visible
04 Sep 4.4 20:00:31 10° SSW 20:04:23 41° W 20:08:16 10° N visible
05 Sep 4.7 19:57:56 10° SSW 20:01:41 35° W 20:05:28 10° NNW visible
06 Sep 5.6 06:02:14 10° NNE 06:05:35 25° ENE 06:08:55 10° SE visible
06 Sep 5.1 19:55:22 10° SW 19:59:00 30° W 20:02:39 10° NNW visible
